Nausori, Fiji

10:21 PM +13 on December 18, 2017 (GMT +1300)
Nausori International

Weather History for NFNA - January, 2003

Change the Weather History Date:

Friday, January 24, 2003

  Actual Average Record
Temperature  
Mean Temperature 81 °F -  
Max Temperature 87 °F 88 °F - ()
Min Temperature 75 °F 75 °F - ()
Cooling Degree Days 16    
Growing Degree Days 31 (Base 50)    
Moisture  
Dew Point 76 °F    
Average Humidity 84    
Maximum Humidity 100    
Minimum Humidity 66    
Precipitation  
Precipitation 0.00 in 0.38 in - ()
Sea Level Pressure  
Sea Level Pressure 29.70 in    
Wind  
Wind Speed 2 mph ()    
Max Wind Speed 14 mph    
Max Gust Speed -    
Visibility 15.5 miles    
Events Rain    
T = Trace of Precipitation, MM = Missing Value Source: Averaged Metar Reports

Daily Weather History Graph

Daily Weather History Graph

Search for Another Location

Airport or City:

Trip Planner

Search our weather history database for the weather conditions in past years. The results will help you decide how hot, cold, wet, or windy it might be!

Date:

Astronomy

Jan. 24, 2003 Rise Set
Actual Time 5:47 AM +12 6:47 PM +12
Civil Twilight 5:24 AM +12 7:11 PM +12
Nautical Twilight 4:56 AM +12 7:38 PM +12
Astronomical Twilight 4:28 AM +12 8:06 PM +12
Moon 11:13 PM +12 (1/24) 10:58 AM +12 (1/24)
Length of Visible Light 13h 46m
Length of Day
13h 00m
Waning Gibbous, 65% of the Moon is Illuminated
Jan 24
Waning Gibbous
Jan 25
Last Quarter
Feb 1
New
Feb 9
First Quarter
Feb 17
Full

Hourly Weather History & Observations

Time (+12) Temp. Heat Index Dew Point Humidity Pressure Visibility Wind Dir Wind Speed Gust Speed Precip Events Conditions
12:00 AM 77.0 °F - 75.2 °F 94% 29.74 in 24.9 mi Calm Calm - N/A   Overcast
1:00 AM 77.0 °F - 75.2 °F 94% 29.74 in 24.9 mi Calm Calm - N/A   Overcast
2:00 AM 77.0 °F - 77.0 °F 100% 29.71 in 24.9 mi Calm Calm - N/A   Overcast
3:00 AM 77.0 °F - 75.2 °F 94% 29.68 in 24.9 mi Calm Calm - N/A   Mostly Cloudy
4:00 AM 77.0 °F - 75.2 °F 94% 29.68 in 24.9 mi Calm Calm - N/A   Scattered Clouds
5:00 AM 77.0 °F - 75.2 °F 94% 29.68 in 24.9 mi Calm Calm - N/A   Scattered Clouds
6:00 AM 75.2 °F - 75.2 °F 100% - 31.1 mi Calm Calm - N/A   Mostly Cloudy
7:00 AM 77.0 °F - 77.0 °F 100% 29.71 in 31.1 mi Calm Calm - N/A   Mostly Cloudy
8:00 AM 82.4 °F 92.4 °F 78.8 °F 89% 29.71 in 31.1 mi East 5.8 mph - N/A   Mostly Cloudy
9:00 AM 84.2 °F 94.1 °F 77.0 °F 79% 29.74 in 31.1 mi NE 11.5 mph - N/A   Scattered Clouds
10:00 AM 84.2 °F 94.1 °F 77.0 °F 79% 29.71 in 31.1 mi NE 11.5 mph - N/A   Mostly Cloudy
11:00 AM 87.8 °F 97.6 °F 75.2 °F 66% 29.71 in 31.1 mi East 13.8 mph - N/A   Mostly Cloudy
12:00 PM 86.0 °F 96.9 °F 77.0 °F 74% 29.68 in 31.1 mi ENE 9.2 mph - N/A   Mostly Cloudy
1:00 PM 87.8 °F 97.6 °F 75.2 °F 66% 29.68 in 31.1 mi East 9.2 mph - N/A   Mostly Cloudy
2:00 PM 87.8 °F 97.6 °F 75.2 °F 66% 29.65 in 31.1 mi ENE 5.8 mph - N/A   Mostly Cloudy
3:00 PM 87.8 °F 97.6 °F 75.2 °F 66% 29.65 in 31.1 mi ENE 5.8 mph - N/A   Mostly Cloudy
4:00 PM 87.8 °F 97.6 °F 75.2 °F 66% 29.65 in 31.1 mi ENE 5.8 mph - N/A   Mostly Cloudy
5:00 PM 86.0 °F 95.1 °F 75.2 °F 70% 29.65 in 31.1 mi ENE 5.8 mph - N/A   Mostly Cloudy
6:00 PM 86.0 °F 95.1 °F 75.2 °F 70% 29.68 in 31.1 mi Calm Calm - N/A   Mostly Cloudy
7:00 PM 82.4 °F 89.5 °F 75.2 °F 79% 29.71 in 31.1 mi Calm Calm - N/A   Mostly Cloudy
8:00 PM 78.8 °F - 77.0 °F 94% 29.71 in 31.1 mi Calm Calm - N/A   Mostly Cloudy
9:00 PM 78.8 °F - 77.0 °F 94% 2.95 in 12.4 mi Calm Calm - N/A Rain Light Rain Showers
10:00 PM 78.8 °F - 77.0 °F 94% 29.74 in 18.6 mi Calm Calm - N/A   Mostly Cloudy
11:00 PM 77.0 °F - 77.0 °F 100% 29.74 in 24.9 mi Calm Calm - N/A   Mostly Cloudy